RYR57ZQ LIME-LEPA

Flight info

Callsign RYR57ZQ
Flight time 1h 36m
Altitude 35000
Route VOG DCT BORDI/N0373F190 N736 IVLAM/N0396F230 N736 PIGOS/N0372F190 N86 LERMA/N0448F340 DCT RIXOT
Aircraft A320/M-SDE3FGHIRWY/LB1

Departure

Time 2026-05-06 16:26
Airport Il Caravaggio International Airport (LIME)

Arrival

Time 2026-05-06 18:03
Airport Palma de Mallorca Airport (LEPA)
Time Latitude Longitude Altitude Speed Heading
2026-05-06 15:56 45.66633 9.70055 788 ft 0 kts 195°
2026-05-06 16:15 45.66637 9.70056 787 ft 3 kts 195°
2026-05-06 16:15 45.66659 9.70064 787 ft 3 kts 195°
2026-05-06 16:16 45.66680 9.70072 787 ft 3 kts 194°
2026-05-06 16:16 45.66699 9.70079 787 ft 3 kts 201°
2026-05-06 16:16 45.66716 9.70094 787 ft 3 kts 244°
2026-05-06 16:16 45.66719 9.70121 787 ft 3 kts 283°
2026-05-06 16:17 45.66714 9.70147 787 ft 0 kts 285°
2026-05-06 16:19 45.66714 9.70146 787 ft 1 kts 285°
2026-05-06 16:19 45.66716 9.70139 787 ft 2 kts 285°
2026-05-06 16:19 45.66722 9.70109 787 ft 5 kts 285°
2026-05-06 16:20 45.66733 9.70046 787 ft 8 kts 285°
2026-05-06 16:20 45.66751 9.69951 787 ft 12 kts 285°
2026-05-06 16:20 45.66775 9.69825 787 ft 15 kts 285°
2026-05-06 16:20 45.66805 9.69671 787 ft 18 kts 285°
2026-05-06 16:21 45.66835 9.69506 787 ft 18 kts 284°
2026-05-06 16:21 45.66870 9.69315 787 ft 21 kts 285°
2026-05-06 16:21 45.66906 9.69103 787 ft 20 kts 274°
2026-05-06 16:21 45.66919 9.68926 787 ft 12 kts 281°
2026-05-06 16:22 45.66962 9.68875 787 ft 8 kts
2026-05-06 16:22 45.67001 9.68886 787 ft 0 kts 18°
2026-05-06 16:23 45.67001 9.68887 787 ft 0 kts 18°
2026-05-06 16:24 45.67004 9.68888 787 ft 1 kts 18°
2026-05-06 16:24 45.67018 9.68895 787 ft 3 kts 18°
2026-05-06 16:24 45.67043 9.68909 787 ft 5 kts 19°
2026-05-06 16:25 45.67080 9.68927 787 ft 6 kts 19°
2026-05-06 16:25 45.67104 9.68973 787 ft 7 kts 97°
2026-05-06 16:25 45.67087 9.69059 787 ft 15 kts 105°
2026-05-06 16:25 45.67007 9.69489 787 ft 76 kts 105°
2026-05-06 16:26 45.66824 9.70474 789 ft 127 kts 105°
2026-05-06 16:26 45.66562 9.71888 806 ft 165 kts 105°
2026-05-06 16:26 45.66251 9.73511 1253 ft 172 kts 107°
2026-05-06 16:26 45.65910 9.75162 1848 ft 173 kts 107°
2026-05-06 16:27 45.65504 9.76759 2558 ft 171 kts 120°
2026-05-06 16:27 45.64715 9.78021 3124 ft 172 kts 145°
2026-05-06 16:27 45.63641 9.78743 3664 ft 171 kts 167°
2026-05-06 16:27 45.62449 9.78847 4103 ft 179 kts 189°
2026-05-06 16:28 45.61230 9.78190 4378 ft 197 kts 213°
2026-05-06 16:28 45.60233 9.76735 4656 ft 219 kts 233°
2026-05-06 16:28 45.59335 9.74920 5286 ft 223 kts 232°
2026-05-06 16:28 45.58401 9.73073 5959 ft 233 kts 232°
2026-05-06 16:29 45.57447 9.71213 6851 ft 231 kts 232°
2026-05-06 16:29 45.56498 9.69349 7680 ft 234 kts 232°
2026-05-06 16:29 45.55522 9.67417 8245 ft 247 kts 232°
2026-05-06 16:29 45.54499 9.65386 9113 ft 256 kts 232°
2026-05-06 16:30 45.53365 9.63381 9823 ft 262 kts 227°
2026-05-06 16:30 45.52530 9.62118 10261 ft 267 kts 223°
2026-05-06 16:30 45.50563 9.59707 10662 ft 293 kts 219°
2026-05-06 16:30 45.48969 9.57736 10901 ft 312 kts 221°
2026-05-06 16:31 45.47351 9.55654 11354 ft 322 kts 221°
2026-05-06 16:31 45.45684 9.53489 12041 ft 324 kts 222°
2026-05-06 16:31 45.44016 9.51319 12717 ft 327 kts 222°
2026-05-06 16:31 45.42301 9.49098 13415 ft 329 kts 222°
2026-05-06 16:32 45.40599 9.46903 14060 ft 332 kts 222°
2026-05-06 16:32 45.38905 9.44726 14643 ft 334 kts 222°
2026-05-06 16:32 45.37173 9.42508 15236 ft 335 kts 222°
2026-05-06 16:32 45.35438 9.40291 15861 ft 336 kts 222°
2026-05-06 16:33 45.33702 9.38073 16456 ft 337 kts 222°
2026-05-06 16:33 45.31950 9.35837 16947 ft 339 kts 222°
2026-05-06 16:33 45.30191 9.33590 17576 ft 341 kts 223°
2026-05-06 16:34 45.26647 9.29060 18786 ft 344 kts 223°
2026-05-06 16:34 45.24866 9.26782 19338 ft 347 kts 223°
2026-05-06 16:34 45.23069 9.24491 19934 ft 348 kts 223°
2026-05-06 16:34 45.21266 9.22198 20542 ft 348 kts 223°
2026-05-06 16:35 45.19457 9.19900 21145 ft 349 kts 223°
2026-05-06 16:35 45.17647 9.17602 21758 ft 349 kts 223°
2026-05-06 16:35 45.15836 9.15303 22320 ft 349 kts 223°
2026-05-06 16:35 45.14023 9.13004 22878 ft 350 kts 223°
2026-05-06 16:36 45.12207 9.10703 23409 ft 351 kts 223°
2026-05-06 16:36 45.10389 9.08401 23856 ft 352 kts 223°
2026-05-06 16:36 45.08556 9.06080 24288 ft 353 kts 223°
2026-05-06 16:36 45.06743 9.03791 24694 ft 355 kts 223°
2026-05-06 16:37 45.05495 9.02217 24970 ft 356 kts 223°
2026-05-06 16:37 45.03639 8.99879 25372 ft 357 kts 222°
2026-05-06 16:37 45.01783 8.97542 25733 ft 358 kts 222°
2026-05-06 16:37 44.99918 8.95195 26132 ft 360 kts 222°
2026-05-06 16:38 44.97436 8.92074 26638 ft 361 kts 222°
2026-05-06 16:38 44.96194 8.90515 26886 ft 362 kts 222°
2026-05-06 16:38 44.94277 8.88110 27271 ft 364 kts 222°
2026-05-06 16:38 44.92382 8.85734 27640 ft 365 kts 222°
2026-05-06 16:39 44.90503 8.83379 28013 ft 367 kts 222°
2026-05-06 16:39 44.88592 8.80990 28376 ft 368 kts 222°
2026-05-06 16:39 44.86671 8.78591 28734 ft 370 kts 221°
2026-05-06 16:39 44.84744 8.76184 29092 ft 372 kts 222°
2026-05-06 16:40 44.82806 8.73763 29449 ft 373 kts 221°
2026-05-06 16:40 44.80870 8.71351 29935 ft 371 kts 221°
2026-05-06 16:40 44.78942 8.68949 30367 ft 369 kts 221°
2026-05-06 16:40 44.77027 8.66563 30775 ft 367 kts 221°
2026-05-06 16:41 44.75112 8.64180 31177 ft 366 kts 221°
2026-05-06 16:41 44.73205 8.61808 31580 ft 365 kts 221°
2026-05-06 16:41 44.71303 8.59440 31985 ft 365 kts 221°
2026-05-06 16:41 44.69407 8.57081 32396 ft 364 kts 221°
2026-05-06 16:42 44.67511 8.54729 32817 ft 363 kts 221°
2026-05-06 16:42 44.65620 8.52391 33231 ft 362 kts 221°
2026-05-06 16:42 44.63735 8.50063 33672 ft 360 kts 221°
2026-05-06 16:42 44.61855 8.47740 33998 ft 360 kts 221°
2026-05-06 16:43 44.59976 8.45418 34272 ft 361 kts 221°
2026-05-06 16:43 44.58091 8.43086 34501 ft 362 kts 222°
2026-05-06 16:43 44.56198 8.40749 34720 ft 364 kts 222°
2026-05-06 16:44 44.52349 8.36012 34805 ft 373 kts 221°
2026-05-06 16:44 44.48417 8.31187 34794 ft 377 kts 221°
2026-05-06 16:45 44.44467 8.26342 34796 ft 377 kts 221°
2026-05-06 16:45 44.40512 8.21505 34796 ft 377 kts 221°
2026-05-06 16:46 44.36561 8.16676 34790 ft 378 kts 221°
2026-05-06 16:46 44.32600 8.11847 34779 ft 378 kts 221°
2026-05-06 16:47 44.28639 8.07025 34809 ft 378 kts 221°
2026-05-06 16:47 44.24669 8.02202 34819 ft 378 kts 221°
2026-05-06 16:48 44.20701 7.97385 34824 ft 378 kts 221°
2026-05-06 16:48 44.16745 7.92601 34837 ft 380 kts 221°
2026-05-06 16:49 44.12744 7.87772 34800 ft 380 kts 221°
2026-05-06 16:49 44.08738 7.82943 34812 ft 382 kts 221°
2026-05-06 16:50 44.04719 7.78107 34818 ft 382 kts 221°
2026-05-06 16:50 44.00555 7.73515 34823 ft 383 kts 216°
2026-05-06 16:51 43.96173 7.69315 34800 ft 383 kts 216°
2026-05-06 16:51 43.91786 7.65131 34821 ft 383 kts 216°
2026-05-06 16:52 43.87391 7.60953 34829 ft 383 kts 216°
2026-05-06 16:52 43.82997 7.56776 34864 ft 383 kts 216°
2026-05-06 16:53 43.78612 7.52613 34853 ft 382 kts 216°
2026-05-06 16:53 43.74222 7.48459 34851 ft 382 kts 216°
2026-05-06 16:54 43.69844 7.44313 34850 ft 381 kts 216°
2026-05-06 16:54 43.65466 7.40171 34849 ft 381 kts 216°
2026-05-06 16:55 43.60972 7.36279 34853 ft 383 kts 208°
2026-05-06 16:55 43.56151 7.33134 34843 ft 383 kts 208°
2026-05-06 16:56 43.51335 7.29973 34857 ft 383 kts 209°
2026-05-06 16:56 43.46527 7.26807 34862 ft 383 kts 209°
2026-05-06 16:57 43.41718 7.23647 34867 ft 383 kts 208°
2026-05-06 16:57 43.36908 7.20506 34834 ft 383 kts 208°
2026-05-06 16:58 43.32123 7.17388 34850 ft 383 kts 208°
2026-05-06 16:58 43.27303 7.14256 34863 ft 383 kts 208°
2026-05-06 16:59 43.22480 7.11125 34869 ft 383 kts 208°
2026-05-06 16:59 43.17659 7.07998 34871 ft 383 kts 209°
2026-05-06 17:00 43.13164 7.04169 34882 ft 380 kts 216°
2026-05-06 17:00 43.08760 7.00143 34887 ft 381 kts 216°
2026-05-06 17:01 43.04351 6.96133 34900 ft 381 kts 216°
2026-05-06 17:01 42.99936 6.92131 34874 ft 381 kts 216°
2026-05-06 17:02 42.95523 6.88127 34883 ft 381 kts 216°
2026-05-06 17:02 42.91109 6.84127 34923 ft 381 kts 216°
2026-05-06 17:03 42.86693 6.80125 34928 ft 381 kts 216°
2026-05-06 17:03 42.82277 6.76127 34945 ft 381 kts 216°
2026-05-06 17:04 42.77854 6.72137 34918 ft 381 kts 216°
2026-05-06 17:04 42.73427 6.68159 34918 ft 381 kts 216°
2026-05-06 17:05 42.68997 6.64184 34917 ft 382 kts 216°
2026-05-06 17:05 42.64561 6.60219 34925 ft 382 kts 216°
2026-05-06 17:06 42.60129 6.56250 34923 ft 381 kts 216°
2026-05-06 17:06 42.55700 6.52280 34931 ft 381 kts 216°
2026-05-06 17:07 42.51268 6.48327 34936 ft 381 kts 216°
2026-05-06 17:07 42.46827 6.44380 34955 ft 382 kts 216°
2026-05-06 17:08 42.42409 6.40456 34928 ft 382 kts 216°
2026-05-06 17:08 42.37943 6.36486 34929 ft 382 kts 216°
2026-05-06 17:09 42.33494 6.32552 34932 ft 382 kts 216°
2026-05-06 17:09 42.29073 6.28649 34932 ft 382 kts 216°
2026-05-06 17:10 42.24619 6.24721 34940 ft 382 kts 216°
2026-05-06 17:10 42.20168 6.20801 34904 ft 382 kts 216°
2026-05-06 17:11 42.15718 6.16883 34920 ft 382 kts 216°
2026-05-06 17:11 42.11261 6.12971 34926 ft 382 kts 216°
2026-05-06 17:12 42.06804 6.09064 34927 ft 382 kts 216°
2026-05-06 17:12 42.02348 6.05158 34928 ft 382 kts 217°
2026-05-06 17:13 41.97887 6.01255 34935 ft 382 kts 217°
2026-05-06 17:13 41.93421 5.97354 34945 ft 383 kts 217°
2026-05-06 17:14 41.88955 5.93463 34943 ft 383 kts 216°
2026-05-06 17:14 41.84486 5.89584 34946 ft 383 kts 216°
2026-05-06 17:15 41.80021 5.85702 34934 ft 383 kts 217°
2026-05-06 17:15 41.75545 5.81825 34948 ft 383 kts 217°
2026-05-06 17:16 41.71069 5.77954 34953 ft 383 kts 217°
2026-05-06 17:16 41.66595 5.74087 34955 ft 383 kts 217°
2026-05-06 17:17 41.62112 5.70225 34944 ft 383 kts 217°
2026-05-06 17:17 41.57628 5.66369 34944 ft 384 kts 217°
2026-05-06 17:18 41.53135 5.62511 34952 ft 384 kts 217°
2026-05-06 17:18 41.48664 5.58689 34953 ft 384 kts 217°
2026-05-06 17:19 41.44164 5.54828 34960 ft 384 kts 217°
2026-05-06 17:19 41.39664 5.50977 34940 ft 385 kts 217°
2026-05-06 17:20 41.35148 5.47129 34946 ft 385 kts 217°
2026-05-06 17:20 41.30631 5.43289 34952 ft 385 kts 217°
2026-05-06 17:21 41.26114 5.39443 34956 ft 386 kts 217°
2026-05-06 17:21 41.22357 5.36243 34961 ft 386 kts 217°
2026-05-06 17:22 41.17063 5.31751 34956 ft 387 kts 217°
2026-05-06 17:22 41.13287 5.28560 34955 ft 387 kts 217°
2026-05-06 17:23 41.08743 5.24730 34959 ft 387 kts 217°
2026-05-06 17:23 41.04209 5.20898 34962 ft 387 kts 217°
2026-05-06 17:24 40.99654 5.17055 34942 ft 388 kts 217°
2026-05-06 17:24 40.95102 5.13230 34947 ft 389 kts 217°
2026-05-06 17:25 40.90542 5.09407 34695 ft 390 kts 217°
2026-05-06 17:25 40.88232 5.07473 33970 ft 393 kts 217°
2026-05-06 17:25 40.85918 5.05531 33154 ft 394 kts 217°
2026-05-06 17:25 40.83601 5.03590 32358 ft 395 kts 216°
2026-05-06 17:26 40.81281 5.01652 31584 ft 396 kts 216°
2026-05-06 17:26 40.78946 4.99701 30806 ft 397 kts 216°
2026-05-06 17:26 40.76607 4.97755 30088 ft 398 kts 216°
2026-05-06 17:26 40.74292 4.95832 29736 ft 388 kts 216°
2026-05-06 17:27 40.72029 4.93954 29290 ft 381 kts 216°
2026-05-06 17:27 40.69805 4.92105 28836 ft 375 kts 216°
2026-05-06 17:27 40.67615 4.90278 28390 ft 369 kts 216°
2026-05-06 17:27 40.65498 4.88511 27959 ft 364 kts 216°
2026-05-06 17:28 40.63368 4.86736 27531 ft 359 kts 216°
2026-05-06 17:28 40.61277 4.84998 27118 ft 355 kts 216°
2026-05-06 17:28 40.59202 4.83278 26711 ft 351 kts 216°
2026-05-06 17:28 40.57146 4.81572 26322 ft 348 kts 216°
2026-05-06 17:29 40.55105 4.79877 25934 ft 346 kts 216°
2026-05-06 17:29 40.53079 4.78193 25558 ft 343 kts 216°
2026-05-06 17:29 40.51065 4.76524 25189 ft 341 kts 216°
2026-05-06 17:29 40.49061 4.74866 24826 ft 338 kts 216°
2026-05-06 17:30 40.47076 4.73226 24447 ft 336 kts 216°
2026-05-06 17:30 40.45106 4.71600 24095 ft 333 kts 215°
2026-05-06 17:30 40.43155 4.69996 23731 ft 330 kts 215°
2026-05-06 17:30 40.41219 4.68404 23340 ft 328 kts 215°
2026-05-06 17:31 40.39406 4.66638 22951 ft 321 kts 225°
2026-05-06 17:31 40.37929 4.64495 22686 ft 317 kts 235°
2026-05-06 17:31 40.36610 4.62084 22475 ft 332 kts 235°
2026-05-06 17:31 40.35243 4.59605 22221 ft 336 kts 234°
2026-05-06 17:32 40.33865 4.57128 21983 ft 336 kts 234°
2026-05-06 17:32 40.32490 4.54657 21723 ft 335 kts 235°
2026-05-06 17:32 40.31119 4.52190 21473 ft 334 kts 235°
2026-05-06 17:32 40.29755 4.49733 21221 ft 333 kts 235°
2026-05-06 17:33 40.28395 4.47284 20974 ft 332 kts 235°
2026-05-06 17:33 40.27055 4.44877 20738 ft 331 kts 235°
2026-05-06 17:33 40.25698 4.42445 20484 ft 330 kts 235°
2026-05-06 17:33 40.24345 4.40020 20239 ft 329 kts 235°
2026-05-06 17:34 40.22997 4.37601 19997 ft 328 kts 235°
2026-05-06 17:34 40.21655 4.35191 19749 ft 328 kts 235°
2026-05-06 17:34 40.20315 4.32784 19505 ft 327 kts 235°
2026-05-06 17:34 40.18978 4.30384 19263 ft 326 kts 235°
2026-05-06 17:35 40.17641 4.27985 19022 ft 325 kts 235°
2026-05-06 17:35 40.16308 4.25591 18776 ft 326 kts 235°
2026-05-06 17:35 40.14970 4.23190 18533 ft 327 kts 234°
2026-05-06 17:36 40.12289 4.18400 18029 ft 326 kts 235°
2026-05-06 17:36 40.10955 4.16026 17768 ft 323 kts 235°
2026-05-06 17:36 40.09627 4.13666 17538 ft 322 kts 235°
2026-05-06 17:36 40.08304 4.11310 17294 ft 320 kts 235°
2026-05-06 17:37 40.06992 4.08973 17064 ft 319 kts 235°
2026-05-06 17:37 40.05678 4.06640 16834 ft 319 kts 234°
2026-05-06 17:37 40.04365 4.04315 16595 ft 318 kts 234°
2026-05-06 17:37 40.03057 4.01998 16355 ft 317 kts 234°
2026-05-06 17:38 40.01768 3.99712 16126 ft 315 kts 234°
2026-05-06 17:38 40.00472 3.97412 15891 ft 314 kts 234°
2026-05-06 17:38 39.99180 3.95125 15655 ft 314 kts 234°
2026-05-06 17:38 39.97889 3.92836 15420 ft 312 kts 234°
2026-05-06 17:39 39.96605 3.90556 15183 ft 311 kts 234°
2026-05-06 17:39 39.95320 3.88273 14996 ft 314 kts 234°
2026-05-06 17:39 39.94025 3.85979 14950 ft 316 kts 234°
2026-05-06 17:39 39.92718 3.83664 14954 ft 317 kts 234°
2026-05-06 17:40 39.91409 3.81353 14953 ft 317 kts 234°
2026-05-06 17:40 39.90104 3.79052 14944 ft 316 kts 234°
2026-05-06 17:40 39.88802 3.76761 14947 ft 314 kts 234°
2026-05-06 17:40 39.87500 3.74473 14942 ft 313 kts 234°
2026-05-06 17:41 39.86209 3.72211 14705 ft 309 kts 234°
2026-05-06 17:41 39.84926 3.69964 14693 ft 311 kts 234°
2026-05-06 17:41 39.83640 3.67710 14348 ft 309 kts 234°
2026-05-06 17:41 39.82364 3.65474 13916 ft 308 kts 234°
2026-05-06 17:42 39.81088 3.63234 13474 ft 306 kts 234°
2026-05-06 17:42 39.79825 3.61020 13015 ft 305 kts 234°
2026-05-06 17:42 39.78577 3.58831 12568 ft 304 kts 234°
2026-05-06 17:42 39.77321 3.56631 12129 ft 303 kts 234°
2026-05-06 17:43 39.76067 3.54433 11702 ft 302 kts 234°
2026-05-06 17:43 39.74816 3.52241 11265 ft 302 kts 234°
2026-05-06 17:43 39.73557 3.50043 10802 ft 303 kts 234°
2026-05-06 17:43 39.72303 3.47858 10380 ft 303 kts 234°
2026-05-06 17:44 39.71043 3.45669 9974 ft 302 kts 234°
2026-05-06 17:44 39.69823 3.43480 9796 ft 293 kts 239°
2026-05-06 17:44 39.68887 3.41173 9634 ft 284 kts 244°
2026-05-06 17:44 39.68022 3.38917 9500 ft 274 kts 244°
2026-05-06 17:45 39.67184 3.36736 9370 ft 266 kts 244°
2026-05-06 17:45 39.66373 3.34624 9234 ft 257 kts 244°
2026-05-06 17:45 39.65586 3.32580 9103 ft 249 kts 244°
2026-05-06 17:45 39.64817 3.30584 8993 ft 246 kts 244°
2026-05-06 17:46 39.64050 3.28597 8947 ft 246 kts 244°
2026-05-06 17:46 39.63294 3.26641 8948 ft 246 kts 244°
2026-05-06 17:46 39.62528 3.24655 8947 ft 246 kts 244°
2026-05-06 17:46 39.61761 3.22670 8950 ft 246 kts 244°
2026-05-06 17:47 39.61012 3.20734 8942 ft 234 kts 244°
2026-05-06 17:47 39.60290 3.18864 8945 ft 232 kts 244°
2026-05-06 17:47 39.59569 3.16995 8947 ft 232 kts 244°
2026-05-06 17:47 39.58835 3.15098 8947 ft 232 kts 244°
2026-05-06 17:48 39.58123 3.13262 8949 ft 232 kts 244°
2026-05-06 17:48 39.57398 3.11393 8948 ft 232 kts 244°
2026-05-06 17:48 39.56673 3.09528 8947 ft 232 kts 244°
2026-05-06 17:48 39.55949 3.07664 8919 ft 231 kts 244°
2026-05-06 17:49 39.55232 3.05818 8619 ft 229 kts 244°
2026-05-06 17:49 39.54517 3.03974 8286 ft 230 kts 244°
2026-05-06 17:49 39.53772 3.02054 7598 ft 246 kts 244°
2026-05-06 17:49 39.52997 3.00062 7192 ft 250 kts 243°
2026-05-06 17:50 39.52212 2.98050 6730 ft 250 kts 243°
2026-05-06 17:50 39.51423 2.96036 6309 ft 252 kts 243°
2026-05-06 17:50 39.50629 2.94009 5989 ft 251 kts 243°
2026-05-06 17:50 39.49845 2.92003 5727 ft 248 kts 243°
2026-05-06 17:51 39.49078 2.90040 5555 ft 242 kts 243°
2026-05-06 17:51 39.48323 2.88101 5263 ft 240 kts 242°
2026-05-06 17:51 39.47576 2.86184 5035 ft 237 kts 242°
2026-05-06 17:51 39.46826 2.84261 5008 ft 240 kts 242°
2026-05-06 17:52 39.46073 2.82326 5009 ft 241 kts 242°
2026-05-06 17:52 39.45327 2.80421 5007 ft 241 kts 242°
2026-05-06 17:52 39.44569 2.78489 5009 ft 241 kts 242°
2026-05-06 17:52 39.43801 2.76525 5007 ft 241 kts 242°
2026-05-06 17:53 39.43060 2.74623 5005 ft 238 kts 242°
2026-05-06 17:53 39.42338 2.72754 5004 ft 228 kts 242°
2026-05-06 17:53 39.41631 2.70935 5008 ft 226 kts 242°
2026-05-06 17:53 39.40923 2.69116 5008 ft 226 kts 242°
2026-05-06 17:54 39.40212 2.67299 5008 ft 225 kts 242°
2026-05-06 17:54 39.39509 2.65508 4762 ft 222 kts 242°
2026-05-06 17:54 39.38823 2.63721 4459 ft 222 kts 242°
2026-05-06 17:54 39.38140 2.61938 4154 ft 221 kts 242°
2026-05-06 17:55 39.37467 2.60159 4005 ft 221 kts 242°
2026-05-06 17:55 39.36788 2.58368 4006 ft 223 kts 242°
2026-05-06 17:55 39.36106 2.56571 4002 ft 223 kts 242°
2026-05-06 17:55 39.35423 2.54770 4007 ft 223 kts 242°
2026-05-06 17:56 39.34878 2.52900 3996 ft 224 kts 264°
2026-05-06 17:56 39.35128 2.50943 4006 ft 224 kts 298°
2026-05-06 17:56 39.36138 2.49464 3740 ft 221 kts 326°
2026-05-06 17:56 39.37467 2.48454 3386 ft 222 kts 332°
2026-05-06 17:57 39.38821 2.47485 3079 ft 222 kts 332°
2026-05-06 17:57 39.40190 2.46590 2994 ft 220 kts 346°
2026-05-06 17:57 39.41694 2.46435 3004 ft 218 kts 13°
2026-05-06 17:57 39.43073 2.47170 3006 ft 215 kts 40°
2026-05-06 17:58 39.44035 2.48592 3006 ft 205 kts 60°
2026-05-06 17:58 39.44767 2.50133 3008 ft 199 kts 60°
2026-05-06 17:58 39.45485 2.51647 3046 ft 197 kts 60°
2026-05-06 17:58 39.46193 2.53135 3009 ft 196 kts 60°
2026-05-06 17:59 39.46910 2.54641 2881 ft 195 kts 60°
2026-05-06 17:59 39.47620 2.56131 2664 ft 192 kts 60°
2026-05-06 17:59 39.48312 2.57585 2422 ft 187 kts 60°
2026-05-06 17:59 39.48979 2.58986 2171 ft 176 kts 60°
2026-05-06 18:00 39.49601 2.60295 1943 ft 166 kts 60°
2026-05-06 18:00 39.50197 2.61549 1729 ft 162 kts 61°
2026-05-06 18:00 39.50784 2.62785 1518 ft 160 kts 60°
2026-05-06 18:00 39.51368 2.64014 1300 ft 159 kts 60°
2026-05-06 18:01 39.51928 2.65194 1089 ft 148 kts 60°
2026-05-06 18:01 39.52458 2.66310 899 ft 143 kts 59°
2026-05-06 18:01 39.52975 2.67401 698 ft 143 kts 58°
2026-05-06 18:01 39.53497 2.68501 519 ft 143 kts 56°
2026-05-06 18:02 39.54015 2.69595 326 ft 142 kts 57°
2026-05-06 18:02 39.54534 2.70674 122 ft 140 kts 58°
2026-05-06 18:02 39.55031 2.71733 36 ft 127 kts 59°
2026-05-06 18:02 39.55415 2.72547 38 ft 87 kts 58°
2026-05-06 18:03 39.55654 2.73055 38 ft 38 kts 58°
2026-05-06 18:03 39.55716 2.73263 38 ft 18 kts 88°
2026-05-06 18:03 39.55719 2.73390 38 ft 11 kts 89°
2026-05-06 18:03 39.55720 2.73458 38 ft 4 kts 89°
2026-05-06 18:04 39.55720 2.73480 38 ft 5 kts 89°
2026-05-06 18:04 39.55700 2.73535 38 ft 7 kts 155°
2026-05-06 18:04 39.55665 2.73521 37 ft 0 kts 214°
2026-05-06 18:04 39.55662 2.73518 37 ft 2 kts 213°
2026-05-06 18:05 39.55643 2.73508 38 ft 4 kts 199°
2026-05-06 18:05 39.55596 2.73518 38 ft 10 kts 152°
2026-05-06 18:05 39.55523 2.73576 38 ft 12 kts 148°
2026-05-06 18:05 39.55444 2.73639 38 ft 16 kts 148°
2026-05-06 18:06 39.55341 2.73719 38 ft 14 kts 148°
2026-05-06 18:06 39.55257 2.73786 38 ft 14 kts 149°
2026-05-06 18:06 39.55189 2.73824 38 ft 9 kts 201°
2026-05-06 18:06 39.55139 2.73775 38 ft 11 kts 178°
2026-05-06 18:07 39.55056 2.73838 38 ft 17 kts 148°
2026-05-06 18:07 39.54984 2.73894 38 ft 13 kts 149°
2026-05-06 18:07 39.54928 2.73898 38 ft 10 kts 245°
2026-05-06 18:07 39.54910 2.73826 38 ft 7 kts 249°
2026-05-06 18:08 39.54902 2.73802 38 ft 0 kts 248°